SCP
0 0 0 0 0 0 0 0 0 0 0 -0 -0 0 0 0 0 0 0 0 0 0 0 0 0 0 0 0 0 0 0 0 0 0 0 0 0 0 0 0 0 0 0
0 0 0 0 0 0 -0 0 0 0 0 -0 0 0 0 0 0 0 0 0 0 0 0 0 0 0 0 0 0 0 0 0 0 0 0 0 0 0 0 0 0 0 0
0 0 0 0 0 0 -0 -0 0 0 0 0 0 0 0 0 0 0 0 0 0 0 0 0 0 0 0 0 0 0 0 0 0 0 0 0 0 0 0 0 0 0 0
0 0 0 0 0 0 0 0 0 0 0 0 0 0 0 0 0 0 0 0 0 0 0 0 0 0 0 0 0 0 0 0 0 0 0 0 0 0 0 0 0 0 0
0 0 0 0 0 0 0 0 0 0 0 0 0 0 0 0 0 0 0 0 0 0 0 0 0 0 0 0 0 0 0 0 0 0 0 0 0 0 0 0 0 0 0
0 0 0 0 0 0 0 0 0 0 0 0 0 0 0 0 0 0 0 0 0 0 0 0 0 0 0 0 0 0 0 0 0 0 0 0 0 0 0 0 0 0 0
0 0 0 0 0 0 0 0 0 0 0 0 0 0 0 0 0 0 0 0 0 0 0 0 0 0 0 0 0 0 0 0 0 0 0 0 0 0 0 0 0 0 0
0 0 0 0 0 0 0 0 0 0 0 0 0 0 0 0 0 0 0 0 0 0 0 0 0 0 0 0 0 0 0 0 0 0 0 0 0 0 0 0 0 0 0
0 0 0 0 0 0 0 0 0 0 0 0 0 0 0 0 0 0 0 0 0 0 0 0 0 0 0 0 0 0 0 0 0 0 0 0 0 0 0 0 0 0 0
0 0 0 0 0 0 0 0 0 0 0 0 0 0 0 0 0 0 0 0 0 0 0 0 0 0 0 0 0 0 0 0 0 0 0 0 0 0 0 0 0 0 0
0 0 0 0 0 0 0 0 0 0 0 0 0 0 0 0 0 0 0 0 0 0 0 0 0 0 0 0 0 0 0 0 0 0 0 0 0 0 0 0 0 0 0
0 0 0 0 0 0 0 0 0 0 0 0 0 0 0 0 0 0 0 0 0 0 0 0 0 0 0 0 0 0 0 0 0 0 0 0 0 0 0 0 0 0 0
0 0 0 0 0 0 0 0 0 0 0 0 0 0 0 0 0 0 0 0 0 0 0 0 0 0 0 0 0 0 0 0 0 0 0 0 0 0 0 0 0 0 0
0 0 0 0 0 0 0 0 0 0 0 0 0 0 0 0 0 0 0 0 0 0 0 0 0 0 0 0 0 0 0 0 0 0 0 0 0 0 0 0 0 0 0
0 0 0 0 0 0 0 0 0 0 0 0 0 0 0 0 0 0 0 0 0 0 0 0 0 0 0 0 0 0 0 0 0 0 0 0 0 0 0 0 0 0 0
0 0 0 0 0 0 0 0 0 0 0 0 0 0 0 0 0 0 0 0 0 0 0 0 0 0 0 0 0 0 0 0 0 0 0 0 0 0 0 0 0 0 0
0 0 0 0 0 0 0 0 0 0 0 0 0 0 0 0 0 0 0 0 0 0 0 0 0 0 0 0 0 0 0 0 0 0 0 0 0 0 0 0 0 0 0
0 0 0 0 0 0 0 0 0 0 0 0 0 0 0 0 0 0 0 0 0 0 0 0 0 0 0 0 0 0 0 0 0 0 0 0 0 0 0 0 0 0 0
0 0 0 0 0 0 0 0 0 0 0 0 0 0 0 0 0 0 0 0 0 0 0 0 0 0 0 0 0 0 0 0 0 0 0 0 0 0 0 0 0 0 0
0 0 0 0 0 0 0 0 0 0 0 0 0 0 0 0 0 0 0 0 0 0 0 0 0 0 0 0 0 0 0 0 0 0 0 0 0 0 0 0 0 0 0
0 0 0 0 0 0 0 0 0 0 0 0 0 0 0 0 0 0 0 0 0 0 0 0 0 0 0 0 0 0 0 0 0 0 0 0 0 0 0 0 0 0 0
0 0 0 0 0 0 0 0 0 0 0 0 0 0 0 0 0 0 0 0 0 0 0 0 0 0 0 0 0 0 0 0 0 0 0 0 0 0 0 0 0 0 0
0 0 0 0 0 0 0 0 0 0 0 0 0 0 0 0 0 0 0 0 0 0 0 0 0 0 0 0 0 0 0 0 0 0 0 0 0 0 0 0 0 0 0
0 0 0 0 0 0 0 0 0 0 0 0 0 0 0 0 0 0 0 0 0 0 0 0 0 0 0 0 0 0 0 0 0 0 0 0 0 0 0 0 0 0 0
0 0 0 0 0 0 0 0 0 0 0 0 0 0 0 0 0 0 0 0 0 0 0 0 0 0 0 0 0 0 0 0 0 0 0 0 0 0 0 0 0 0 0
0 0 0 0 0 0 0 0 0 0 0 0 0 0 0 0 0 0 0 0 0 0 0 0 0 0 0 0 0 0 0 0 0 0 0 0 0 0 0 0 0 0 0
Wind_Speed
5 5 4 4 4 3 4 4 4 4 5 5 4 4 4 5 5 4 3 6 6 5 6 6 5 5 4 4 5 5 5 6 7 7 8 7 7 7 6 5 5 4 4
7 7 6 5 5 5 5 4 4 4 4 3 3 4 6 6 5 5 3 4 6 5 5 6 6 5 5 5 5 5 6 6 7 7 7 7 7 7 6 6 5 4 3
8 8 7 7 6 6 5 3 3 3 3 3 4 5 5 5 6 5 4 3 3 5 5 6 6 6 6 6 6 6 6 6 7 7 8 7 7 7 6 6 6 5 4
9 7 7 7 7 5 4 3 3 2 2 2 2 2 3 4 5 5 4 4 3 3 4 6 6 6 6 6 6 7 7 6 6 7 7 7 7 7 7 6 6 6 5
9 7 6 6 6 5 4 4 2 3 2 2 2 2 2 3 4 5 5 5 5 4 3 5 7 6 6 6 6 6 7 7 7 7 7 7 6 6 7 7 6 6 6
9 7 5 6 6 4 3 3 3 2 2 3 2 1 1 2 2 3 5 5 5 5 5 4 4 4 6 6 6 7 7 7 7 7 7 7 6 6 7 7 7 7 7
8 8 6 6 5 4 5 5 4 3 2 2 3 2 2 2 2 2 3 4 5 6 5 5 4 3 3 6 6 7 8 7 7 7 7 6 6 6 6 6 6 7 7
7 7 7 6 5 5 4 4 4 3 1 2 3 2 1 3 3 1 2 4 5 5 5 7 5 5 4 3 5 7 7 7 7 7 6 6 5 6 6 5 5 5 5
5 5 6 5 5 5 4 4 4 5 3 1 2 4 3 4 2 3 2 2 3 4 5 5 6 6 6 4 4 7 8 7 8 8 7 6 6 6 5 5 5 4 3
3 4 5 4 4 3 4 4 4 4 4 3 1 1 2 3 3 2 3 2 2 4 4 5 6 6 6 5 6 8 10 9 9 9 8 7 6 6 5 5 4 3 3
3 4 5 5 5 4 4 4 4 4 3 3 3 2 2 1 2 2 2 2 2 2 3 4 4 5 7 6 6 8 12 11 10 9 9 8 8 7 6 5 5 4 4
3 4 4 4 3 3 4 4 4 4 3 4 3 3 3 3 3 3 4 3 3 3 2 3 3 4 5 6 9 13 13 12 11 10 9 9 9 8 7 7 6 5 4
2 4 4 3 3 3 3 3 3 3 4 4 4 3 3 3 3 3 3 3 3 3 2 2 3 3 5 5 7 13 14 14 12 11 10 9 8 8 8 8 7 6 5
2 2 2 2 2 2 2 2 2 3 3 4 4 4 3 3 4 4 4 4 2 2 2 4 2 3 3 4 7 12 9 14 13 12 11 10 10 9 8 9 8 7 6
1 2 2 1 0 0 1 2 2 2 2 3 3 4 3 3 3 3 3 4 4 3 3 3 3 2 2 3 6 6 6 12 14 13 12 12 11 10 10 9 8 6 6
3 3 3 1 1 1 1 1 1 2 2 2 2 3 3 2 2 3 3 3 3 4 3 3 3 2 2 2 5 5 6 10 13 13 13 13 13 12 11 10 9 8 7
2 2 1 1 1 1 1 1 2 2 2 2 2 3 4 3 3 2 2 2 3 3 3 3 2 2 2 2 2 3 4 4 5 12 14 14 14 13 13 12 11 10 9
3 2 2 2 2 2 2 1 1 1 2 3 3 3 3 3 3 2 2 3 2 3 3 3 2 2 3 3 3 3 3 4 4 8 12 14 14 14 13 13 12 11 11
4 3 3 4 3 3 3 2 1 1 1 1 2 3 3 3 3 2 3 2 2 2 2 2 2 1 2 1 1 2 2 2 3 5 9 12 14 14 13 13 12 12 11
5 5 5 4 3 3 3 3 2 2 2 1 1 1 2 4 4 3 3 2 2 1 1 1 1 1 1 1 1 1 2 2 2 2 3 5 8 12 12 12 12 12 12
8 6 6 6 5 4 5 4 2 2 2 2 2 1 1 3 4 3 3 3 3 2 1 1 0 1 1 1 1 1 2 1 1 1 1 2 3 3 5 9 11 12 12
7 7 7 7 7 6 9 8 4 2 2 2 2 2 1 2 1 2 3 4 4 3 2 2 1 0 1 1 1 1 1 0 1 1 0 1 1 2 3 3 6 9 10
7 7 7 6 6 8 12 11 9 3 3 2 1 1 1 2 2 1 1 2 1 2 3 3 2 1 1 1 0 0 0 1 1 1 1 1 1 1 1 2 4 5 6
5 6 6 6 6 10 15 13 10 6 4 4 3 2 2 2 2 2 2 2 0 1 0 2 2 1 1 1 1 1 1 1 1 2 1 1 2 1 1 0 1 2 2
5 5 5 6 7 9 15 14 11 4 4 5 4 3 3 2 3 3 4 3 2 2 2 3 3 2 3 3 2 2 2 2 2 2 2 1 2 2 2 2 2 2 1
5 5 6 6 7 7 14 15 11 3 4 3 3 4 5 4 4 4 3 4 3 1 2 3 3 4 4 4 4 2 2 2 1 1 1 1 1 2 2 2 2 3 2
Wind_Direction
191 188 196 202 209 209 210 219 226 233 240 243 239 217 185 163 166 169 175 175 170 172 171 170 169 171 175 179 181 178 174 172 170 166 163 161 159 159 157 155 153 147 137
189 188 195 202 211 213 211 213 220 223 225 204 180 157 156 159 171 173 175 180 177 178 182 182 182 186 190 191 194 189 185 183 182 179 177 175 174 173 173 171 168 163 157
191 191 195 200 209 214 213 208 216 201 197 168 146 141 146 156 170 178 177 179 182 188 189 191 190 192 197 200 201 199 194 191 190 190 190 189 188 188 188 189 187 186 188
193 187 191 198 200 197 194 188 178 160 174 153 152 154 150 160 173 179 181 182 184 189 197 196 190 192 195 196 198 199 196 195 195 198 200 200 200 201 203 206 203 201 207
194 182 187 191 181 176 178 180 155 153 155 161 174 172 169 177 180 179 184 190 194 191 195 202 192 191 195 197 198 197 196 197 199 201 202 203 205 206 209 212 213 215 220
189 181 179 179 167 158 163 155 141 133 146 157 143 126 215 223 195 183 192 192 196 196 197 199 195 202 200 198 201 201 198 199 200 202 204 206 210 216 219 221 223 227 227
180 175 169 166 159 160 166 156 139 134 134 133 100 49 344 316 255 220 192 183 195 200 195 199 200 205 208 208 206 205 201 201 203 203 205 209 214 221 224 228 230 236 236
170 170 164 163 157 152 156 153 138 135 144 137 129 119 346 329 312 271 203 195 199 197 199 204 201 206 207 195 211 208 203 201 204 203 206 210 216 222 226 228 234 238 241
161 156 163 159 158 155 163 163 153 147 158 170 142 145 158 216 283 313 277 215 197 198 204 201 203 206 206 199 202 212 203 199 200 202 205 210 216 219 223 227 231 230 223
153 148 155 159 156 158 163 173 166 157 153 167 177 173 172 161 163 289 316 306 228 211 214 213 208 205 202 197 202 203 202 198 200 204 205 210 212 216 217 214 217 218 220
142 154 161 161 162 164 172 179 170 165 166 169 171 168 176 190 165 171 258 301 316 261 231 224 210 201 200 195 196 203 202 199 201 205 209 210 209 210 210 212 215 224 232
152 156 152 157 161 165 175 183 181 174 179 179 177 174 172 177 186 180 210 237 262 278 261 235 218 202 196 194 200 200 202 202 203 206 210 211 211 211 212 213 216 224 230
157 164 158 153 161 169 178 181 181 182 190 188 192 189 191 199 176 175 182 211 237 276 293 273 234 207 200 192 202 200 203 203 205 205 205 206 208 213 217 219 219 225 235
123 138 139 144 160 164 185 192 185 198 199 199 200 192 192 203 190 185 177 171 200 273 286 269 281 229 213 196 207 202 206 206 207 208 206 204 204 207 213 220 226 231 236
102 99 93 101 159 182 219 206 194 199 198 197 196 195 189 195 189 190 181 171 168 201 257 265 262 264 228 204 206 198 203 211 210 211 211 209 208 208 211 217 224 227 231
58 55 57 50 346 301 268 205 185 206 191 200 187 173 188 187 187 189 184 180 173 175 220 257 249 255 248 218 202 192 203 213 217 216 217 216 214 213 214 216 218 217 219
60 57 60 41 346 312 295 208 210 201 191 211 203 193 205 188 185 189 179 172 176 172 211 260 261 256 242 234 202 198 205 212 222 224 223 222 219 218 217 219 219 218 219
36 40 45 46 27 16 18 10 264 211 195 208 212 205 216 198 192 191 181 188 189 188 194 237 267 252 241 234 220 216 215 216 216 226 225 224 223 221 220 220 221 220 221
38 41 54 59 48 42 34 14 345 351 309 234 216 203 204 183 192 190 181 183 192 189 187 207 251 264 265 246 223 240 239 243 240 237 229 226 225 223 222 222 223 223 224
43 49 57 63 63 59 45 26 19 27 359 328 292 195 183 174 178 173 166 170 162 155 170 190 242 278 276 272 201 241 264 248 254 258 241 225 223 224 223 224 225 226 228
56 55 55 49 46 50 36 24 22 39 29 29 29 43 158 163 172 167 158 161 147 136 123 123 220 315 303 292 248 237 245 274 266 252 246 228 214 218 219 228 230 230 230
54 58 57 51 44 37 30 30 26 26 45 52 31 18 74 104 132 148 150 156 156 153 156 150 166 230 279 270 264 230 211 102 303 333 232 269 199 224 222 216 226 233 238
52 54 51 47 40 27 33 34 37 43 47 57 61 51 70 74 90 88 94 106 118 148 164 154 161 209 243 261 218 104 153 162 234 324 4 310 314 253 243 228 221 231 241
48 49 45 39 34 29 33 34 38 41 48 45 45 64 89 70 83 119 121 115 89 7 167 147 158 190 216 219 152 142 133 85 44 5 14 13 350 341 339 320 235 220 232
42 40 39 36 33 20 28 34 40 36 49 42 37 45 66 71 61 111 123 120 94 26 53 112 123 103 77 88 99 80 60 61 36 359 5 41 357 350 354 351 355 360 335
44 44 42 34 30 19 22 31 37 41 47 37 31 29 41 54 62 90 118 127 123 118 84 82 67 48 43 43 54 75 103 89 77 18 353 42 4 10 15 355 357 2 2